Location: Elaina
(34.1445°N, 106.7742°W)
Time: 15:36:09
(UTC+00:00)

STARLINK-35987 - Pass Details

Date: 11 December 2025
Orbit: 482 x 484 km, 43.0° (Epoch: 16 January)

Event Time Altitude Azimuth Distance (km) Brightness Sun altitude
Exits shadow 12:28:47 25° 217° (SW) 1,005 3.7 -18.9°
Maximum altitude 12:30:45 58° 147° (SSE) 566 2.8 -18.6°
Drops below altitude 10° 12:34:28 10° 68° (ENE) 1,659 5.8 -17.8°
Sets 12:36:40 0° 64° (ENE) 2,539 6.8 -17.4°
